AirNav   Pilot Hours Calculator
 
 614 users online  

49R Real County Airport
Leakey, Texas, USA

GOING TO LEAKEY?


FAA INFORMATION EFFECTIVE 23 MAY 2019

Location

FAA Identifier: 49R
Lat/Long: 29-44-43.8040N / 099-45-39.2130W
29-44.730067N / 099-45.653550W
29.7455011 / -99.7608925
(estimated)
Elevation: 1640 ft. / 500 m (estimated)
Variation: 08E (1985)
From city: 1 mile N of LEAKEY, TX
Time zone: UTC -5 (UTC -6 during Standard Time)
Zip code: 78873

Airport Operations

Airport use: Open to the public
Activation date: 03/1976
Control tower: no
ARTCC: HOUSTON CENTER
FSS: SAN ANGELO FLIGHT SERVICE STATION
NOTAMs facility: SJT (NOTAM-D service available)
Attendance: UNATNDD
Wind indicator: yes
Segmented circle: yes
Lights: SS-SR

Airport Communications

CTAF: 122.9

Nearby radio navigation aids

VOR radial/distance  VOR name  Freq  Var
CSIr242/30.4CENTER POINT VORTAC117.5008E
RSGr110/32.4ROCKSPRINGS VORTAC111.2010E

 
NDB name  Hdg/Dist  Freq  Var  ID
UVALDE350/34.128107EUVA ..- ...- .-
HONDO298/38.032908EHMA .... -- .-

Airport Services

Parking: tiedowns

Runway Information

Runway 15/33

Dimensions: 3975 x 50 ft. / 1212 x 15 m
Surface: asphalt, in fair condition
Weight bearing capacity: 
Single wheel: 11.0
Runway edge lights: non-standard
NSTD LIRL DUE TO COLOR. LIRL OTS INDEF.
RUNWAY 15  RUNWAY 33
Traffic pattern: leftleft
Displaced threshold: 240 ft.
DSPLCD THLD UNLGTD.
270 ft.
DSPLCD THLD UNLGTD.
Markings: basic, in fair conditionbasic, in fair condition
Obstructions: 20 ft. trees, 200 ft. from runway
+20'-30' TREES 0'-200' FM THR, ACROSS THR
35 ft. trees, 200 ft. from runway
15 FT ROAD 70 FT FM THLD ACROSS EXTENDED CENTERLINE, 2 FT PIPE GATE AT THLD ACROSS CENTERLINE.

Airport Ownership and Management from official FAA records

Ownership: Privately-owned
COUNTY LEASES RY, TWY, APRON & ENT RD.
Owner: BUZ MAXWELL
20 CAMPDEN
CORPUS CHRISTI, TX 78412
Phone 361-739-8279
Manager: GARRY MERRITT
PO BOX 446
LEAKEY, TX 78873
Phone 830-232-5304
COUNTY JUDGE.

Airport Operational Statistics

Aircraft based on the field: 4
Single engine airplanes: 4
    
Aircraft operations: avg 23/week *
67% local general aviation
33% transient general aviation
* for 12-month period ending 18 August 2016

Additional Remarks

+4' FENCE 75' WEST RWY CNTRLN FULL LENGTH RWY.
+4' FENCE 100' EAST RWY CNTRLN FROM RWY 15 THR SOUTH TO NORTH TWY.
DO NOT USE TURF TWY FROM APRON TO END OF RWY 33.
ULTRALIGHT ACTIVITY ADJ TO RY.

Instrument Procedures

There are no published instrument procedures at 49R.

Some nearby airports with instrument procedures:

KECU - Edwards County Airport (25 nm NW)
KUVA - Garner Field Airport (32 nm S)
KERV - Kerrville Municipal Airport/Louis Schreiner Field (38 nm E)
KHDO - South Texas Regional Airport at Hondo (38 nm SE)
KJCT - Kimble County Airport (46 nm N)
 
Loc | Ops | Rwys | IFR | FBO | Links
Com | Nav | Svcs | Stats | Notes
Area around 49R (Real County Airport)
 
Road maps at: MapQuest Bing Google
 
Aerial photo
WARNING: Photo may not be current or correct
Aerial photo of 49R (Real County Airport)
Photo by Tim Ingram
Taken in May 2006

Do you have a better or more recent aerial photo of Real County Airport that you would like to share? If so, please send us your photo.

 
Sectional chart

 
Airport distance calculator
Flying to Real County Airport? Find the distance to fly.

From to 49R

Sunrise and sunset
Times for 27-May-2019
 Local
(UTC-5)
 Zulu
(UTC)
Morning civil twilight06:1511:15
Sunrise06:4111:41
Sunset20:3101:31
Evening civil twilight20:5801:58

Current date and time
Zulu (UTC)  27-May-2019 05:23:44
Local (UTC-5)  27-May-2019 00:23:44
 
METAR
KECU 
25nm NW 
270455Z AUTO 15014G21KT 10SM BKN021 BKN029 BKN037 23/19 A3003 RMK AO2
KUVA 
32nm S 
270455Z AUTO 12011G19KT 10SM CLR 24/20 A2996 RMK AO2 T02430198
KERV 
38nm E 
270455Z AUTO 16014G18KT 10SM CLR 23/19 A2997 RMK AO2 T02330186
KHDO 
38nm SE 
270451Z AUTO 13013KT 10SM CLR 24/19 A2996 RMK AO2 SLP129 T02440194
KJCT 
45nm N 
270451Z AUTO 18009KT 9SM CLR 25/19 A2996 RMK AO2 SLP106 T02500189
TAF
KJCT 
45nm N 
261746Z 2618/2718 16010G16KT 6SM HZ SCT030 OVC040 FM270100 16012KT P6SM BKN250 FM271000 16013KT P6SM BKN017 FM271700 17016G23KT P6SM BKN040
NOTAMs
Click for the latest NOTAMs
NOTAMs are issued by the DoD/FAA and will open in a separate window not controlled by AirNav.

 

 
 

Would you like to see your business listed on this page?

 If your business provides an interesting product or service to pilots, flight crews, aircraft, or users of the Real County Airport, you should consider listing it here.  To start the listing process, click on the button below
 
Add a business
 

Other Pages about Real County Airport

Update a link
 
Copyright © AirNav, LLC. All rights reserved. Privacy Policy  Contact